Regional Weather Roundup
Issued by NWS

Home | Current Version | Previous Version | Graphics & Text | Print | Product List | Glossary On
Versions: 1 2 3 4 5 6 7 8 9 10 11 12 13 14 15 16 17 18 19 20 21 22 23 24 25 26 27 28 29 30 31 32 33 34 35 36 37 38 39 40 41 42 43 44 45 46 47 48 49 50
953
ASUS43 KMKX 211711
RWRWI

WISCONSIN REGIONAL WEATHER ROUNDUP
NATIONAL WEATHER SERVICE MILWAUKEE/SULLIVAN WI
1200 PM CDT THU SEP 21 2017

NOTE: "FAIR" INDICATES FEW OR NO CLOUDS BELOW 12,000 FEET WITH NO
SIGNIFICANT WEATHER AND/OR OBSTRUCTIONS TO VISIBILITY.

WIZ001-002-006>008-014>016-023>028-211800-
NORTHWEST WISCONSIN

CITY           SKY/WX    TMP DP  RH WIND       PRES   REMARKS
SUPERIOR ARPT  SUNNY     64  57  80 NE10      30.01F
ASHLAND        SUNNY     67  57  70 N8        30.02F
HAYWARD        SUNNY     72  57  59 SE9G18    30.00F
SIREN          SUNNY     73  54  50 SE9G16    29.96F
CUMBERLAND     SUNNY     72  55  56 SE8       29.98F
RICE LAKE      SUNNY     74  57  56 SE9       29.99F
CHETEK         SUNNY     72  61  67 SE8       29.99F
LADYSMITH      SUNNY     75  60  61 SE7       30.02F
EAU CLAIRE     SUNNY     75  63  66 SE12      29.96F
MENOMONIE      SUNNY     73  61  65 SE8       29.97F
NEW RICHMOND   SUNNY     74  57  55 SE8       29.95F
OSCEOLA        SUNNY     75  56  50 SE9G16    29.97F
$$

WIZ003>005-009-010-017-018-211800-
NORTH CENTRAL WISCONSIN

CITY           SKY/WX    TMP DP  RH WIND       PRES   REMARKS
MANITOWISH WTR SUNNY     70  63  78 NE6       30.04F
ARBOR VITAE    SUNNY     72  63  72 S7        30.04F
WOODRUFF       SUNNY     72  63  72 S7        30.04F
RHINELANDER    MOSUNNY   72  65  78 SE9       30.05F
EAGLE RIVER    SUNNY     73  60  64 SE8       30.05F
LAND O LAKES   SUNNY     72  59  63 E8        30.07F
PHILLIPS       SUNNY     72  63  74 SE7       30.02F
TOMAHAWK       SUNNY     74  63  68 CALM      30.03F
MEDFORD        MOSUNNY   72  64  77 SE8       30.02F
MERRILL        CLOUDY    75  66  73 SE7       30.03F
$$

WIZ029-030-035-036-043>047-211800-
CENTRAL WISCONSIN

CITY           SKY/WX    TMP DP  RH WIND       PRES   REMARKS
WAUSAU         MOSUNNY   74  65  73 SE10      30.01F
MOSINEE        PTSUNNY   73  66  78 SE8       30.03F
MARSHFIELD     CLOUDY    70  66  87 SE9       30.02S FOG
STEVENS POINT  CLOUDY    69  67  96 SE7       30.03F
WAUPACA        CLOUDY    71  70  98 E7        30.03S FOG
WAUTOMA        CLOUDY    70  69  97 E3        30.03S FOG
WISC RAPIDS    CLOUDY    69  32  25 SE8       30.03F FOG
CAMP DOUGLAS   NOT AVBL
$$

WIZ011>013-019>022-031-037>040-048>050-211800-
NORTHEAST WISCONSIN

CITY           SKY/WX    TMP DP  RH WIND       PRES   REMARKS
ANTIGO         SUNNY     73  65  77 SE10      30.05F
SHAWANO        CLOUDY    76  68  77 SE7       30.03F
OCONTO         CLOUDY    71  65  84 E6        30.04S
STURGEON BAY   CLOUDY    72  67  84 CALM      30.05S
GREEN BAY      CLOUDY    72  68  87 NE6       30.04S
MANITOWOC      CLOUDY    77  69  76 SE12      30.04S
APPLETON       CLOUDY    72  70  94 NE6       30.02F FOG
CLINTONVILLE   NOT AVBL
OSHKOSH        CLOUDY    74  69  85 VRB5      30.02F
$$

WIZ032>034-041-042-053>061-211800-
SOUTHWEST WISCONSIN

CITY           SKY/WX    TMP DP  RH WIND       PRES   REMARKS
LA CROSSE      SUNNY     77  66  69 E6          N/A
SPARTA         CLOUDY    70  64  83 E8        29.99F
VIROQUA        CLOUDY    76  69  77 SE8       30.00F
BOSCOBEL       CLOUDY    82  66  58 S6        29.98F HX  84
PRAIRIE DU CHI CLOUDY    79  61  54 SE6       29.97F HX  81
PLATTEVILLE    PTSUNNY   78  69  74 E8        30.01F HX  80
$$

WIZ056-057-062-063-064-067-068-211800-
SOUTH CENTRAL WISCONSIN

CITY           SKY/WX    TMP DP  RH WIND       PRES   REMARKS
REEDSBURG      CLOUDY    76  71  84 SE3       30.00
BARABOO/DELLS  CLOUDY    77  69  76 SE3       30.02F
LONE ROCK      CLOUDY    78  71  79 E10       30.00F HX  80
MINERAL POINT  PTSUNNY   79  70  73 SE8       30.02F HX  81
MADISON        PTSUNNY   76  70  82 S6        30.03S
MIDDLETON      PTSUNNY   77  72  84 SE8       30.03F
WATERTOWN      CLOUDY    78  72  82 SE5       30.03F HX  80
MONROE         CLOUDY    77  64  65 E3        30.04F
JANESVILLE     PTSUNNY   88  63  42 SE7       30.02S HX  88
$$

WIZ051-052-058>065-066-070>072-211800-
SOUTHEAST WISCONSIN

CITY           SKY/WX    TMP DP  RH WIND       PRES   REMARKS
MILWAUKEE      CLOUDY    79  69  71 SE6       30.03S HX  81
WAUKESHA       MOSUNNY   79  66  65 NE5       30.05S HX  81
MILWAUKEE/TIMM SUNNY     81  64  57 CALM      30.04S HX  82
RACINE         CLOUDY    82  69  64 E3        30.04F HX  85
BURLINGTON     CLOUDY    87  66  49 S5        30.02S HX  89
KENOSHA        MOSUNNY   86  68  54 E7        30.03F HX  89
FOND DU LAC    CLOUDY    79  68  69 SE8       30.03S HX  81
SHEBOYGAN      CLOUDY    78  68  71 E8        30.03S HX  80
WEST BEND        N/A     77  70  78 S3        30.04S
JUNEAU         CLOUDY    77  71  81 CALM      30.05R
$$

LSZ147-162-211800-
LAKE SUPERIOR

STATION/POSITION TIME  TEMP    WIND        PRES    WAVE
                       AIR SEA DIR/SP/G            HT/PER
                 (UTC) (F)     (DEG/KT/KT) (MB)    (FT/S)
W MID LAKE BUOY  1650   54 55   40/  6/  6 1017.8F   1
DEVILS ISLAND    1700   59      50/  7/  8 1017.2F
PORT WING        1640   75      30/ 13/ 16 1016.6F
SAXON HARBOR     1640   62      10/  4/  5 1016.6S
$$

LMZ867-665-643>646-211800-
LAKE MICHIGAN

STATION/POSITION TIME  TEMP    WIND        PRES    WAVE
                       AIR SEA DIR/SP/G            HT/PER
                 (UTC) (F)     (DEG/KT/KT) (MB)    (FT/S)
S GREEN BAY BUOY 1700   67 67   90/  6/  8 1017.3
N MID LAKE BUOY  1650   66 66   40/  6/  6 1017.3F   2/ 5
NORTHPORT PIER   1640   67     330/  7/  9 1016.9S
KEWAUNEE LAKESHO 1642   69      20/  3/  8 1016.2F
SHEBOYGAN LAKESH 1700   70      30/  6/  6 1016.7R
PORT WASHINGTON  1640   74      80/  2/  7 1017.6F
ATWATER BUOY     1609   69 67  150/  2/  4 1017.3S
MILWAUKEE LAKESH 1650   74      90/  2/  2   N/A
S MID LAKE BUOY  1650   71 71   50/  2/  4 1017.0F   1/ 3
KENOSHA   LAKESH 1700   73      10/  7/  7 1016.6
$$

TC  - TEMPERATURE IN CELSIUS
VSB - VISIBILITY IN STATUTE MILES
WCI - WIND CHILL INDEX
HX  - HEAT INDEX





USA.gov is the U.S. government's official web portal to all federal, state and local government web resources and services.